FW8740 Weather Reports


Display with metric or nautical units.
time (UTC)temp
F
wind
direction
speed
MPH
gust
MPH
rain 1hr
in
rain 24hr
in
rain mn
in
humidity
%
barometer
mb
20260903171007 79 53 1.0 1.0 0.00 0.19 0.19 85 1017.1
20260903170506 78 187 1.0 3.0 0.00 0.19 0.19 85 1017.3
20260903170001 78 262 3.0 3.0 0.00 0.19 0.19 85 1017.3
20260903165459 78 114 0.0 2.0 0.00 0.19 0.19 86 1017.0
20260903164955 78 138 1.0 2.0 0.00 0.19 0.19 85 1017.4
20260903164450 78 236 2.0 6.0 0.00 0.19 0.19 85 1017.1
20260903163949 78 169 1.0 2.0 0.00 0.19 0.19 86 1017.3
20260903163445 78 357 3.0 5.0 0.00 0.19 0.19 87 1017.4
20260903162941 77 72 3.0 3.0 0.00 0.19 0.19 88 1017.7
20260903162437 77 120 0.0 2.0 0.00 0.19 0.19 89 1017.7
20260903161933 77 309 2.0 5.0 0.00 0.19 0.19 88 1017.6
20260903161428 77 340 3.0 6.0 0.00 0.19 0.19 87 1017.4
20260903160924 77 280 4.0 6.0 0.00 0.19 0.19 87 1017.5
20260903160423 77 72 1.0 7.0 0.00 0.19 0.19 90 1017.6
20260903155921 76 6 2.0 3.0 0.00 0.19 0.19 90 1017.9
20260903155417 76 128 3.0 7.0 0.00 0.19 0.19 89 1017.9
20260903154913 76 137 2.0 7.0 0.00 0.19 0.19 90 1018.1
20260903154409 75 35 1.0 5.0 0.00 0.19 0.19 91 1018.0
20260903153909 75 323 4.0 7.0 0.00 0.19 0.19 92 1017.9
20260903153404 74 122 3.0 6.0 0.00 0.19 0.19 92 1018.0
20260903152901 74 282 2.0 5.0 0.00 0.19 0.19 93 1017.7
20260903152356 74 109 2.0 5.0 0.00 0.19 0.19 94 1017.8
20260903151851 74 63 0.0 3.0 0.00 0.19 0.19 94 1018.1
20260903151347 73 16 2.0 3.0 0.00 0.19 0.19 94 1018.0
20260903150846 73 98 1.0 3.0 0.00 0.19 0.19 94 1018.1
20260903150341 73 113 1.0 5.0 0.00 0.19 0.19 94 1018.0
20260903145836 73 297 2.0 5.0 0.00 0.19 0.19 94 1017.9
20260903145331 73 83 2.0 2.0 0.00 0.19 0.19 94 1018.1
20260903144830 72 305 2.0 7.0 0.00 0.19 0.19 95 1017.8
20260903144326 73 104 0.0 2.0 0.00 0.19 0.19 95 1018.2
20260903143821 72 106 0.0 1.0 0.00 0.19 0.19 95 1018.1
20260903143318 72 112 0.0 5.0 0.00 0.19 0.19 95 1018.1
20260903142813 72 69 3.0 5.0 0.00 0.19 0.19 95 1018.1
20260903142309 71 287 3.0 3.0 0.00 0.19 0.19 96 1018.1
20260903141805 71 118 1.0 1.0 0.00 0.19 0.19 96 1018.1
20260903141301 71 132 2.0 3.0 0.00 0.19 0.19 96 1018.1
20260903140800 71 91 3.0 6.0 0.00 0.19 0.19 97 1018.2
20260903140255 70 110 1.0 2.0 0.00 0.19 0.19 97 1018.2
20260903135751 70 306 3.0 7.0 0.00 0.19 0.19 97 1018.2
20260903135246 70 79 0.0 5.0 0.00 0.19 0.19 98 1018.4
20260903134745 69 102 0.0 3.0 0.00 0.19 0.19 98 1018.4
20260903134241 69 102 1.0 1.0 0.00 0.19 0.19 98 1018.3
20260903133738 70 306 3.0 3.0 0.00 0.19 0.19 98 1018.1
20260903133235 70 85 2.0 2.0 0.00 0.19 0.19 98 1018.2
20260903132734 70 108 0.0 1.0 0.00 0.19 0.19 98 1018.1
20260903132230 69 132 1.0 1.0 0.00 0.19 0.19 98 1018.1
20260903131725 69 73 1.0 5.0 0.00 0.19 0.19 98 1018.1
20260903131224 69 108 1.0 2.0 0.00 0.19 0.19 98 1017.9
20260903130719 69 126 0.0 0.0 0.00 0.19 0.19 98 1018.3
20260903130214 69 118 0.0 2.0 0.00 0.19 0.19 98 1018.2
20260903125712 69 128 0.0 0.0 0.00 0.19 0.19 98 1018.4
20260903125208 69 122 0.0 2.0 0.00 0.19 0.19 98 1018.7
20260903124707 68 120 0.0 2.0 0.00 0.19 0.19 98 1018.6
20260903124202 68 112 0.0 0.0 0.00 0.19 0.19 98 1018.8
20260903123701 69 85 0.0 1.0 0.00 0.19 0.19 98 1018.8
20260903123200 68 97 0.0 1.0 0.00 0.19 0.19 98 1018.9
20260903122659 68 115 0.0 0.0 0.00 0.19 0.19 98 1018.7
20260903122154 68 108 0.0 1.0 0.00 0.19 0.19 98 1018.7
20260903121653 68 105 0.0 0.0 0.00 0.19 0.19 98 1018.8
20260903121149 68 113 0.0 0.0 0.00 0.19 0.19 98 1018.5
20260903120648 68 107 0.0 0.0 0.00 0.19 0.19 98 1018.8
20260903120143 68 144 0.0 0.0 0.00 0.19 0.19 98 1018.9
20260903115641 68 103 0.0 0.0 0.00 0.19 0.19 98 1018.9
20260903115137 68 100 0.0 0.0 0.00 0.19 0.19 98 1018.6
20260903114632 68 123 0.0 1.0 0.00 0.19 0.19 98 1018.8
20260903114127 68 86 0.0 2.0 0.00 0.19 0.19 98 1018.6
20260903113622 68 104 0.0 2.0 0.00 0.19 0.19 98 1018.9
20260903113118 68 30 2.0 2.0 0.00 0.19 0.19 98 1018.8
20260903112615 68 28 1.0 1.0 0.00 0.19 0.19 98 1019.0
20260903112114 68 101 0.0 1.0 0.00 0.19 0.19 98 1018.8
20260903111613 67 124 0.0 1.0 0.00 0.19 0.19 98 1018.9
20260903111109 67 114 0.0 0.0 0.00 0.19 0.19 98 1018.6
20260903110605 67 118 0.0 0.0 0.00 0.19 0.19 98 1018.8
20260903110100 67 98 0.0 0.0 0.00 0.19 0.19 98 1019.0
20260903105555 67 104 0.0 0.0 0.00 0.19 0.19 98 1018.9
20260903105050 67 92 2.0 2.0 0.00 0.19 0.19 98 1018.8
20260903104549 68 93 0.0 3.0 0.00 0.19 0.19 98 1018.4
20260903104046 68 12 2.0 3.0 0.00 0.19 0.19 98 1018.7
20260903103541 68 335 6.0 7.0 0.00 0.19 0.19 98 1019.1
20260903103037 68 95 2.0 2.0 0.00 0.19 0.19 98 1019.1
20260903102533 68 3 2.0 3.0 0.00 0.19 0.19 98 1018.7
20260903102032 68 108 1.0 1.0 0.00 0.19 0.19 98 1018.8
20260903101526 68 320 2.0 3.0 0.00 0.19 0.19 98 1018.4
20260903101022 68 92 1.0 3.0 0.00 0.19 0.19 98 1018.4
20260903100516 68 91 0.0 2.0 0.00 0.19 0.19 98 1018.5
20260903100015 68 105 0.0 1.0 0.00 0.19 0.19 98 1018.2
20260903095514 68 104 1.0 2.0 0.00 0.19 0.19 98 1018.4
20260903095009 68 75 1.0 5.0 0.00 0.19 0.19 98 1018.5
20260903094508 68 347 4.0 8.0 0.00 0.19 0.19 98 1018.4
20260903094004 68 18 0.0 5.0 0.00 0.19 0.19 98 1018.1
20260903093504 68 103 1.0 3.0 0.00 0.19 0.19 98 1018.5
20260903093000 68 96 1.0 3.0 0.00 0.19 0.19 98 1018.1
20260903092459 68 108 0.0 0.0 0.00 0.19 0.19 98 1018.4
20260903091959 67 92 1.0 2.0 0.00 0.19 0.19 98 1018.6
20260903091456 67 97 0.0 1.0 0.00 0.19 0.19 98 1018.5
20260903090952 67 97 0.0 1.0 0.00 0.19 0.19 98 1018.4
20260903090448 67 98 0.0 1.0 0.00 0.19 0.19 98 1018.6
20260903085946 67 117 0.0 3.0 0.00 0.19 0.19 98 1018.4
20260903085445 67 111 0.0 0.0 0.00 0.19 0.19 98 1018.4
20260903084940 67 111 0.0 1.0 0.00 0.19 0.19 98 1018.3
20260903084438 67 118 0.0 0.0 0.00 0.19 0.19 98 1018.2
20260903083933 67 114 0.0 0.0 0.00 0.19 0.19 98 1018.4
20260903083430 67 112 0.0 0.0 0.00 0.19 0.19 98 1018.5
20260903082928 67 110 0.0 0.0 0.00 0.19 0.19 98 1018.8
20260903082424 67 108 0.0 0.0 0.00 0.19 0.19 98 1019.0
20260903081918 67 107 0.0 0.0 0.00 0.19 0.19 98 1019.2
20260903081414 67 107 0.0 0.0 0.00 0.19 0.19 98 1018.9
20260903080910 67 106 0.0 0.0 0.00 0.19 0.19 98 1019.3
20260903080406 67 342 1.0 2.0 0.00 0.19 0.19 98 1019.2
20260903075901 67 105 0.0 0.0 0.00 0.19 0.19 98 1019.3
20260903075357 66 89 0.0 1.0 0.00 0.19 0.19 98 1018.9
20260903074856 66 116 0.0 1.0 0.00 0.19 0.19 98 1018.9
20260903074351 66 107 0.0 0.0 0.00 0.19 0.19 98 1018.9
20260903073847 66 111 0.0 0.0 0.07 0.19 0.19 98 1019.1
20260903073341 66 115 0.0 0.0 0.07 0.19 0.19 98 1019.3
20260903072837 66 108 0.0 0.0 0.00 0.18 0.18 98 1019.2
20260903072333 66 116 0.0 0.0 0.00 0.18 0.18 98 1018.9
20260903071830 66 115 0.0 0.0 0.00 0.18 0.18 98 1019.2
20260903071326 66 122 0.0 1.0 0.00 0.18 0.18 98 1019.3
20260903070820 66 111 0.0 1.0 0.05 0.18 0.18 98 1019.3
20260903070316 66 110 0.0 0.0 0.05 0.18 0.18 98 1019.6
20260903065810 66 112 0.0 0.0 0.00 0.17 0.17 98 1019.5
20260903065310 66 108 0.0 0.0 0.00 0.17 0.17 98 1019.5
20260903064809 66 104 0.0 1.0 0.00 0.17 0.17 98 1019.7
20260903064304 66 106 0.0 0.0 0.00 0.17 0.17 98 1019.5
20260903063801 66 111 0.0 0.0 0.00 0.17 0.17 98 1019.4
20260903063255 66 108 0.0 0.0 0.00 0.17 0.17 98 1019.5
20260903062751 66 110 0.0 0.0 0.00 0.17 0.17 98 1019.6
20260903062250 66 106 0.0 0.0 0.00 0.17 0.17 98 1019.7
20260903061747 66 100 0.0 0.0 0.00 0.17 0.17 98 1019.8
20260903061246 66 103 0.0 0.0 0.07 0.17 0.17 98 1020.0
20260903060742 66 100 0.0 0.0 0.07 0.17 0.17 98 1020.2
20260903060241 66 100 0.0 0.0 0.00 0.16 0.16 98 1020.5
20260903055739 66 99 0.0 0.0 0.00 0.16 0.16 98 1020.4
20260903055238 66 91 0.0 1.0 0.00 0.16 0.16 98 1020.3
20260903054733 66 100 0.0 0.0 0.07 0.16 0.16 98 1020.0
20260903054228 66 93 0.0 2.0 0.07 0.16 0.16 98 1020.0
20260903053725 66 147 2.0 2.0 0.05 0.15 0.15 98 1019.5
20260903053224 66 110 0.0 0.0 0.12 0.15 0.15 98 1020.4
20260903052720 66 133 1.0 1.0 0.19 0.14 0.14 98 1020.5
20260903052216 66 127 0.0 0.0 0.17 0.13 0.13 98 1020.9
20260903051711 66 109 0.0 0.0 0.24 0.11 0.11 98 1021.2
20260903051206 66 106 0.0 0.0 0.35 0.10 0.10 98 1021.6
20260903050702 66 128 1.0 2.0 0.35 0.07 0.07 98 1022.1
20260903050200 66 80 1.0 2.0 0.26 0.04 0.04 98 1022.1
20260903045655 66 39 0.0 1.0 0.07 0.01 0.01 98 1022.2
20260903045152 66 74 1.0 1.0 0.00 0.00 0.00 98 1021.9
20260903044647 66 114 0.0 0.0 0.00 0.00 0.00 98 1021.6
20260903044137 66 118 0.0 0.0 0.00 0.00 0.00 98 1021.6
20260903043634 66 92 1.0 1.0 0.00 0.00 0.00 98 1022.0
20260903043133 66 109 0.0 0.0 0.00 0.00 0.00 98 1021.8
20260903042632 66 108 0.0 0.0 0.00 0.00 0.00 98 1021.5
20260903042128 66 114 0.0 0.0 0.00 0.00 0.00 98 1021.3
20260903041624 66 139 0.0 0.0 0.00 0.00 0.00 98 1021.5
20260903041120 66 115 0.0 0.0 0.00 0.00 0.00 98 1021.8
20260903040619 66 104 0.0 0.0 0.00 0.00 0.00 98 1021.8
20260903040115 66 101 0.0 0.0 0.00 0.00 0.00 98 1022.0
20260903035610 66 118 0.0 0.0 0.00 0.35 0.35 98 1022.0
20260903035106 66 113 0.0 0.0 0.00 0.35 0.35 98 1021.9
20260903034601 66 108 0.0 0.0 0.00 0.35 0.35 98 1021.8
20260903034056 66 101 0.0 0.0 0.00 0.35 0.35 98 1022.1
20260903033551 66 108 0.0 0.0 0.00 0.35 0.35 98 1021.8
20260903033046 66 103 0.0 0.0 0.00 0.35 0.35 98 1021.6
20260903032541 66 118 0.0 0.0 0.00 0.35 0.35 98 1021.5
20260903032037 66 120 0.0 0.0 0.00 0.35 0.35 98 1021.3
20260903031536 66 122 0.0 0.0 0.00 0.35 0.35 98 1021.5
20260903031031 66 124 0.0 0.0 0.00 0.35 0.35 98 1021.5
20260903030527 66 124 0.0 0.0 0.00 0.35 0.35 98 1021.6
20260903030023 65 116 0.0 0.0 0.00 0.35 0.35 98 1021.8
20260903025518 65 114 0.0 0.0 0.00 0.35 0.35 98 1022.2
20260903025014 65 119 0.0 0.0 0.00 0.35 0.35 97 1022.0
20260903024508 65 109 0.0 0.0 0.00 0.35 0.35 97 1022.1
20260903024008 65 109 0.0 0.0 0.00 0.35 0.35 97 1022.3
20260903023503 65 133 0.0 0.0 0.00 0.35 0.35 97 1022.0
20260903022959 65 113 0.0 0.0 0.00 0.35 0.35 97 1022.1
20260903022458 65 126 0.0 0.0 0.00 0.35 0.35 97 1022.1
20260903021955 65 123 0.0 0.0 0.00 0.35 0.35 97 1022.3
20260903021451 65 115 0.0 0.0 0.00 0.35 0.35 97 1022.2
20260903020947 65 109 0.0 0.0 0.00 0.35 0.35 97 1022.3
20260903020442 65 113 0.0 0.0 0.00 0.35 0.35 97 1022.4
20260903015937 65 109 0.0 0.0 0.00 0.35 0.35 97 1022.3
20260903015432 65 116 0.0 0.0 0.00 0.35 0.35 97 1022.2
20260903014927 65 111 0.0 0.0 0.00 0.35 0.35 97 1022.1
20260903014426 65 110 0.0 0.0 0.00 0.35 0.35 97 1022.2
20260903013921 65 116 0.0 0.0 0.00 0.35 0.35 97 1022.5
20260903013421 65 123 0.0 0.0 0.00 0.35 0.35 97 1022.1
20260903012915 65 119 0.0 0.0 0.00 0.35 0.35 97 1022.4
20260903012415 65 107 0.0 0.0 0.00 0.35 0.35 97 1022.5
20260903011913 65 110 0.0 0.0 0.00 0.35 0.35 97 1022.9
20260903011408 65 119 0.0 0.0 0.00 0.35 0.35 97 1022.6
20260903010903 65 110 0.0 0.0 0.00 0.35 0.35 97 1022.9
20260903010359 64 109 0.0 0.0 0.00 0.35 0.35 97 1022.8
20260903005856 64 113 0.0 0.0 0.00 0.35 0.35 97 1022.9
20260903005352 64 113 0.0 0.0 0.00 0.35 0.35 97 1022.4
20260903004848 64 112 0.0 0.0 0.00 0.35 0.35 97 1023.0
20260903004343 64 112 0.0 0.0 0.00 0.35 0.35 97 1022.8
20260903003838 64 116 0.0 0.0 0.00 0.35 0.35 97 1023.0
20260903003333 64 107 0.0 0.0 0.00 0.35 0.35 97 1023.0
20260903002832 64 110 0.0 0.0 0.00 0.35 0.35 97 1022.9
20260903002328 64 108 0.0 0.0 0.00 0.35 0.35 97 1022.7
20260903001822 64 108 0.0 0.0 0.00 0.35 0.35 97 1022.5
20260903001318 64 97 0.0 1.0 0.00 0.35 0.35 97 1022.3
20260903000817 64 136 1.0 1.0 0.00 0.35 0.35 97 1022.1
20260903000312 64 129 0.0 1.0 0.00 0.35 0.35 97 1021.7
20260902235810 64 135 1.0 1.0 0.00 0.35 0.35 97 1022.0
20260902235306 65 116 0.0 0.0 0.00 0.35 0.35 97 1022.2
20260902234759 65 116 0.0 0.0 0.00 0.35 0.35 97 1022.0
20260902234254 65 116 0.0 1.0 0.00 0.35 0.35 97 1021.8
20260902233753 65 120 0.0 1.0 0.00 0.35 0.35 97 1022.2
20260902233253 65 127 1.0 1.0 0.00 0.35 0.35 97 1022.1
20260902232752 65 112 0.0 1.0 0.00 0.35 0.35 97 1022.3
20260902232246 65 119 1.0 1.0 0.00 0.35 0.35 97 1022.3
20260902231746 65 124 1.0 2.0 0.00 0.35 0.35 97 1022.5
20260902231241 65 103 0.0 2.0 0.00 0.35 0.35 97 1022.5
20260902230741 65 118 0.0 0.0 0.00 0.35 0.35 97 1022.5
20260902230240 65 115 0.0 1.0 0.00 0.35 0.35 97 1022.8
20260902225735 65 111 0.0 1.0 0.00 0.35 0.35 97 1022.6
20260902225230 65 114 1.0 1.0 0.00 0.35 0.35 97 1022.9
20260902224729 65 120 0.0 1.0 0.00 0.35 0.35 97 1023.0
20260902224224 65 120 1.0 1.0 0.00 0.35 0.35 97 1023.1
20260902223720 65 111 0.0 1.0 0.00 0.35 0.35 97 1023.2
20260902223219 65 107 0.0 1.0 0.00 0.35 0.35 97 1023.2
20260902222718 65 132 1.0 2.0 0.00 0.35 0.35 97 1023.2
20260902222213 65 117 0.0 0.0 0.00 0.35 0.35 97 1023.2
20260902221708 65 135 0.0 0.0 0.00 0.35 0.35 97 1023.8
20260902221207 65 112 0.0 0.0 0.00 0.35 0.35 97 1023.6
20260902220702 65 102 0.0 0.0 0.00 0.35 0.35 97 1023.8
20260902220157 65 114 0.0 0.0 0.00 0.35 0.35 97 1023.5
20260902215653 65 132 0.0 0.0 0.00 0.35 0.35 96 1023.5
20260902215148 65 113 0.0 0.0 0.00 0.35 0.35 96 1023.4
20260902214643 65 100 0.0 0.0 0.00 0.35 0.35 96 1023.4
20260902214142 65 115 0.0 0.0 0.00 0.35 0.35 96 1023.3
20260902213637 65 122 0.0 0.0 0.00 0.35 0.35 96 1023.3
20260902213137 65 120 0.0 0.0 0.00 0.35 0.35 96 1023.4
20260902212632 65 123 0.0 1.0 0.00 0.35 0.35 96 1023.2
20260902212128 65 106 1.0 1.0 0.00 0.35 0.35 96 1023.3
20260902211625 65 123 0.0 1.0 0.00 0.35 0.35 96 1023.1
20260902211119 65 116 0.0 0.0 0.00 0.35 0.35 96 1023.1
20260902210619 65 115 0.0 0.0 0.00 0.35 0.35 96 1023.4
20260902210114 64 112 0.0 0.0 0.00 0.35 0.35 96 1023.3
20260902205613 65 107 0.0 0.0 0.00 0.35 0.35 96 1023.3
20260902205109 64 109 0.0 1.0 0.00 0.35 0.35 96 1023.4
20260902204608 64 110 0.0 1.0 0.00 0.35 0.35 96 1023.3
20260902204103 64 109 0.0 1.0 0.00 0.35 0.35 96 1023.2
20260902203559 65 108 0.0 1.0 0.00 0.35 0.35 96 1023.0
20260902203058 65 123 0.0 2.0 0.00 0.35 0.35 96 1023.0
20260902202554 65 114 0.0 0.0 0.00 0.35 0.35 96 1022.8
20260902202050 65 123 0.0 1.0 0.00 0.35 0.35 96 1023.0
20260902201546 65 112 0.0 1.0 0.00 0.35 0.35 96 1022.9
20260902201044 65 102 0.0 2.0 0.00 0.35 0.35 96 1023.1
20260902200540 65 117 0.0 1.0 0.00 0.35 0.35 96 1023.2
20260902200036 65 103 1.0 2.0 0.00 0.35 0.35 96 1022.8
20260902195532 65 91 2.0 2.0 0.00 0.35 0.35 96 1022.8
20260902195031 65 157 1.0 3.0 0.00 0.35 0.35 96 1022.9
20260902194530 65 133 3.0 3.0 0.00 0.35 0.35 95 1023.1
20260902194026 65 117 0.0 1.0 0.05 0.35 0.35 95 1023.2
20260902193522 65 126 1.0 2.0 0.12 0.35 0.35 95 1023.5
20260902193021 65 102 0.0 1.0 0.12 0.34 0.34 95 1023.9
20260902192520 65 103 0.0 1.0 0.05 0.33 0.33 95 1023.6
20260902192019 66 110 0.0 0.0 0.00 0.32 0.32 95 1023.8
20260902191514 65 76 1.0 1.0 0.00 0.32 0.32 95 1023.6
20260902191009 65 126 1.0 1.0 0.12 0.32 0.32 95 1023.6
20260902190504 65 120 0.0 1.0 0.28 0.31 0.31 95 1023.6
20260902185959 65 108 0.0 1.0 0.50 0.30 0.30 95 1024.1
20260902185455 65 129 1.0 1.0 0.54 0.26 0.26 95 1024.0
20260902184950 66 145 1.0 2.0 0.83 0.22 0.22 95 1024.2
20260902184446 66 74 0.0 0.0 0.83 0.16 0.16 94 1024.5
20260902183941 67 82 2.0 2.0 0.12 0.04 0.04 93 1024.6
20260902183437 67 100 0.0 1.0 0.00 0.02 0.02 93 1024.6
20260902182933 67 100 0.0 1.0 0.00 0.02 0.02 92 1023.9
20260902182430 67 127 0.0 1.0 0.00 0.02 0.02 92 1023.6
20260902181926 67 127 1.0 1.0 0.00 0.02 0.02 92 1023.5
20260902181421 67 106 1.0 2.0 0.00 0.02 0.02 92 1023.4
20260902180921 67 121 2.0 2.0 0.00 0.02 0.02 92 1023.6
20260902180416 67 103 2.0 3.0 0.00 0.02 0.02 91 1023.5
20260902175912 67 128 1.0 2.0 0.00 0.02 0.02 91 1023.6
20260902175406 67 135 2.0 2.0 0.00 0.02 0.02 91 1023.9
20260902174901 68 143 2.0 3.0 0.00 0.02 0.02 91 1023.6
20260902174359 68 109 2.0 3.0 0.00 0.02 0.02 91 1024.1
20260902173849 68 129 1.0 3.0 0.00 0.02 0.02 90 1023.9
20260902173348 68 138 1.0 3.0 0.00 0.02 0.02 91 1024.0
20260902172843 67 131 2.0 3.0 0.00 0.02 0.02 92 1023.8
20260902172342 67 125 2.0 3.0 0.00 0.02 0.02 93 1023.6
20260902171838 67 125 1.0 2.0 0.00 0.02 0.02 93 1023.6